Simultaneous Nadir Overpasses (SNOs) Predictions

Prediction of SNOs between GOES-17 and METOP-A Satellite Orbit:

Table of predicted SNOs for the next 14.0 days since TLE Epoch: 1/31/2020
Index Date Time (GOES-17) GOES-17 Lat,Lon METOP-A Lat,Lon Distance(km) Time Diff (sec)
1 02/01/2020 05:43:18 -0.01,-137.20 0.92,-132.96 483.43 80
2 02/02/2020 17:59:31 0.01,-137.20 0.08,-137.55 39.64 80
3 02/05/2020 06:00:32 -0.00,-137.17 0.00,-137.19 3.02 80
4 02/07/2020 17:58:43 0.01,-137.14 -0.05,-136.79 38.73 80
5 02/09/2020 06:15:04 -0.00,-137.10 -0.97,-141.42 492.23 80
6 02/10/2020 05:57:04 -0.01,-137.08 0.13,-136.44 73.35 80
7 02/11/2020 18:13:17 0.00,-137.06 0.87,-141.03 452.34 80
8 02/12/2020 17:55:17 0.01,-137.04 -0.23,-136.05 113.07 80
9 02/14/2020 06:11:36 -0.00,-136.99 -0.84,-140.66 418.67 80




NCC Satellite Simultaneous Nadir Overpasses (SNOs) Prediction Service
